Wind_Speed
10 12 13 14 15 15 16 16 18 20 23 25 28 31 33 34 36 39 40 42 43 44 44 43 43 43 42 41 41 43 46 49 50 52 53 56 58 59 59 57 56 55 55 56
13 14 16 16 16 17 17 18 20 22 24 27 29 32 34 36 38 40 42 43 44 45 45 44 44 43 42 41 42 45 48 50 52 54 55 57 57 58 56 54 52 51 51 52
14 16 17 16 16 17 18 20 22 25 27 29 31 33 36 38 40 42 43 45 45 46 46 45 45 44 43 42 44 47 50 52 54 55 56 56 55 53 51 48 46 45 46 47
16 17 17 17 17 17 18 21 24 26 29 31 32 34 37 39 41 42 44 45 47 47 47 46 46 45 44 44 46 49 51 52 54 55 55 54 52 49 47 44 41 40 40 41
18 19 18 17 17 18 20 21 25 27 29 31 33 36 38 40 42 44 46 47 49 49 48 47 46 45 45 45 47 49 51 53 53 54 53 52 49 46 42 38 35 34 33 33
19 19 19 19 19 20 22 24 26 28 30 33 35 36 39 42 43 45 47 48 49 50 49 48 46 45 45 46 48 49 51 52 53 52 51 50 47 42 38 34 30 26 25 25
19 20 21 20 21 23 25 27 28 30 32 35 37 39 41 42 44 46 47 49 50 50 50 48 46 45 45 46 48 49 51 52 52 51 50 48 45 40 35 31 26 21 19 18
19 20 22 22 23 24 25 27 29 31 33 36 38 41 42 44 46 47 48 49 50 49 49 48 46 45 45 46 47 49 50 50 50 49 48 46 42 38 33 28 23 17 13 12
20 21 22 23 24 25 26 28 30 32 34 37 40 42 44 46 47 48 49 49 49 49 48 47 46 45 44 45 47 48 49 49 49 48 47 44 40 35 31 26 19 14 9 6
20 21 22 23 25 26 27 29 31 33 35 38 41 43 46 48 48 48 48 49 49 48 48 47 46 45 44 44 45 47 48 47 47 46 45 42 38 34 30 24 17 12 6 2
20 21 22 23 25 26 28 29 31 34 37 39 42 45 47 49 49 49 48 49 49 48 47 46 45 44 43 43 44 45 46 46 45 44 43 39 35 31 28 23 18 12 6 1
20 21 22 24 25 27 29 31 33 36 39 41 44 46 48 48 49 49 48 48 48 47 47 46 44 43 42 41 43 43 44 44 43 42 41 38 34 30 26 22 18 12 7 2
20 21 22 24 26 27 30 33 35 38 41 43 45 46 47 48 48 48 48 47 47 46 45 45 44 42 41 40 41 41 42 42 41 40 39 37 34 29 24 21 18 13 7 2
20 21 23 25 27 29 32 35 37 40 42 44 45 46 46 47 47 47 47 46 46 45 45 44 43 42 40 38 38 39 40 40 40 39 38 35 32 29 24 20 17 13 8 3
22 24 26 28 30 32 35 37 40 42 43 45 45 45 45 45 46 47 47 46 45 44 44 43 42 41 39 37 36 37 37 38 38 38 36 34 31 27 23 20 17 13 10 5
26 28 30 31 33 35 37 39 41 42 44 44 43 43 43 44 46 47 47 46 44 43 43 43 41 40 38 36 35 35 35 36 36 35 35 33 30 27 23 20 17 13 10 7
31 32 33 34 36 37 38 40 41 42 43 43 42 42 42 43 45 46 46 45 44 43 42 42 40 39 37 35 33 33 33 34 34 33 33 32 29 26 23 19 16 12 10 8
34 35 36 36 37 38 39 39 40 41 42 42 41 41 41 42 44 45 44 44 43 43 42 41 40 38 36 33 32 31 31 32 32 31 31 30 28 25 22 19 16 13 10 8
36 36 37 38 38 38 38 38 39 40 41 41 40 40 41 42 43 43 43 42 42 41 41 41 39 36 35 32 30 28 29 30 30 30 29 28 27 25 22 19 17 14 11 9
40 39 39 40 40 39 39 39 39 40 40 40 39 39 39 40 41 42 42 41 41 40 40 39 37 35 33 31 28 26 26 27 28 28 28 27 26 25 22 19 18 15 13 11
43 43 42 42 41 40 39 39 40 40 39 39 38 38 39 39 40 40 40 39 39 39 39 38 36 34 32 30 27 25 24 24 25 26 26 25 25 24 22 19 18 17 15 14
46 44 44 44 43 41 39 39 40 40 38 38 39 39 38 38 39 39 38 37 37 36 37 36 35 33 31 28 26 23 21 21 22 23 23 23 23 23 21 20 18 17 15 15
48 47 46 45 44 42 39 39 40 40 38 39 39 38 38 37 37 37 36 35 34 34 35 35 34 31 30 27 24 21 19 18 19 19 20 20 20 21 20 19 18 17 16 15
51 50 48 46 45 42 39 39 40 39 39 39 38 38 38 37 36 35 34 33 33 33 33 33 32 30 28 26 23 20 17 15 15 16 17 17 17 18 18 18 17 17 16 15
55 53 50 47 45 44 43 41 41 41 40 40 39 38 37 36 35 34 33 32 31 31 32 32 31 29 27 25 22 18 15 13 12 12 13 14 14 15 15 16 16 15 16 16
57 55 52 50 47 45 44 43 42 42 41 40 38 37 37 36 35 33 32 31 30 30 31 31 30 28 26 24 21 17 14 11 10 9 9 10 10 11 12 13 14 14 14 14
58 57 54 52 50 48 47 45 43 42 41 40 39 38 39 38 35 33 32 31 30 29 29 30 29 27 25 23 20 17 13 10 9 7 7 6 7 7 8 9 11 11 12 13
Wind_Direction
336 333 333 334 334 333 332 333 334 334 334 334 335 336 337 336 335 335 335 334 333 332 330 328 326 323 320 318 317 317 318 318 316 315 312 309 306 301 296 291 285 277 270 263
331 328 326 327 326 325 326 329 332 332 333 333 333 333 335 336 336 337 336 335 334 333 331 330 328 326 323 320 320 321 322 321 320 318 316 313 310 306 300 294 286 278 271 265
327 323 322 319 323 323 325 327 331 332 332 333 333 332 334 335 336 337 337 336 335 334 333 332 330 329 326 324 324 325 325 324 323 322 320 316 313 310 304 297 289 280 273 265
325 324 324 323 321 321 324 328 331 331 331 332 332 332 334 334 335 335 336 336 336 336 335 334 332 331 329 328 328 328 328 328 327 326 324 321 319 315 309 302 293 284 275 266
323 325 322 319 320 322 326 329 329 330 331 332 333 333 334 335 335 335 336 337 337 336 336 336 334 333 331 331 331 332 332 331 330 330 328 327 324 321 316 309 299 288 277 265
318 320 318 320 322 323 325 328 331 332 333 334 335 335 334 335 335 335 336 337 337 336 337 336 335 334 333 333 334 335 335 335 334 334 333 332 330 327 323 318 308 295 280 266
313 316 316 319 322 324 328 330 332 333 335 335 336 336 335 335 335 335 335 336 336 336 337 337 336 335 335 335 336 337 338 339 339 338 338 337 336 333 331 326 319 305 286 266
310 312 312 319 322 325 327 329 332 333 335 336 336 335 335 335 335 335 335 336 336 336 337 337 337 337 336 337 338 340 341 342 343 342 342 342 341 340 338 334 328 318 297 265
308 309 311 316 320 323 327 329 331 332 334 335 335 334 335 335 335 335 335 335 335 336 337 338 338 338 338 339 340 342 344 345 346 347 346 346 346 346 345 343 339 332 317 264
307 308 311 315 319 323 326 329 330 332 333 334 334 335 335 335 335 335 335 335 336 337 338 339 339 339 339 340 342 345 346 348 349 350 350 351 352 352 353 353 351 346 332 253
307 308 311 315 318 322 325 327 329 330 332 333 334 335 336 336 336 337 336 337 337 337 338 340 340 340 340 341 344 346 348 350 352 353 354 355 356 356 358 0 2 1 1 207
307 309 312 315 319 321 324 325 327 328 331 333 335 336 337 337 338 338 338 338 338 338 339 340 341 341 341 343 345 347 350 352 354 356 357 358 359 360 1 4 5 8 17 72
305 308 312 315 318 320 322 323 325 327 329 332 334 336 337 339 340 340 340 339 338 339 340 341 342 343 343 344 346 349 351 353 356 358 360 1 2 3 3 4 6 9 14 52
305 309 312 315 318 319 320 321 322 325 328 331 333 334 337 339 341 342 341 340 339 340 340 341 343 343 344 345 347 350 352 355 357 359 2 3 3 5 7 8 9 12 18 38
307 310 312 314 316 317 317 319 321 324 327 329 331 333 336 340 342 344 343 342 341 341 341 342 343 344 345 346 348 351 354 357 358 0 3 5 6 7 9 11 13 15 22 36
307 309 310 311 312 314 315 317 319 322 325 327 328 331 335 339 342 344 344 343 342 341 341 342 343 344 346 347 348 352 355 357 359 1 4 7 8 9 11 13 16 21 29 43
303 305 306 307 308 311 313 315 317 319 322 324 325 327 332 336 340 343 344 343 343 342 342 342 343 345 346 347 349 352 355 358 360 2 5 8 10 12 14 16 20 28 40 53
300 301 302 304 306 308 310 312 314 317 319 321 323 325 328 332 336 340 342 343 343 342 342 343 344 345 346 347 349 351 355 358 1 3 6 9 13 16 18 21 26 33 42 55
294 296 298 300 303 305 307 309 311 313 316 318 320 322 324 328 332 337 340 342 343 342 342 343 344 345 346 347 349 351 354 358 1 4 6 11 14 18 21 24 29 37 46 56
289 291 293 295 297 300 302 305 307 309 313 315 317 319 321 325 329 333 337 341 342 342 342 342 343 344 346 347 348 350 353 357 2 6 8 12 15 19 23 28 33 41 55 66
286 288 290 291 294 297 298 301 303 306 309 312 313 315 318 322 326 330 334 338 341 342 342 342 343 343 344 346 347 349 351 356 2 7 11 14 17 21 27 32 39 48 58 70
286 287 288 290 292 294 294 296 299 301 304 307 309 311 315 319 323 326 331 335 338 340 341 341 342 342 343 345 346 347 349 354 1 7 12 17 21 25 31 37 44 52 60 68
283 284 285 287 289 291 291 291 293 296 299 303 305 308 312 316 320 323 327 331 335 338 339 340 340 340 341 343 345 346 347 351 358 6 13 18 23 29 35 41 47 54 62 71
280 280 282 283 284 286 286 285 286 290 294 298 301 304 308 313 316 318 322 326 330 335 337 338 338 338 339 341 342 342 344 346 353 2 11 18 24 31 38 45 52 59 67 75
278 279 279 278 279 279 278 278 280 284 288 293 296 298 301 305 310 314 317 321 325 329 334 336 336 335 336 338 339 339 339 341 345 355 6 17 26 34 41 48 55 62 70 78
276 276 277 276 276 274 272 275 277 278 283 289 291 293 297 301 304 308 312 315 318 323 328 332 334 333 333 335 336 335 333 331 333 341 355 11 24 34 43 49 55 64 73 80
273 273 273 273 273 272 273 273 273 275 277 281 284 287 292 295 298 302 307 310 312 317 323 327 330 330 330 331 332 331 326 318 315 316 327 350 12 27 40 51 58 66 76 86
Height
5855 5853 5851 5849 5846 5843 5840 5837 5834 5830 5825 5820 5814 5808 5803 5796 5790 5782 5774 5766 5758 5749 5741 5732 5723 5715 5706 5698 5691 5684 5675 5667 5657 5648 5638 5628 5618 5608 5599 5592 5586 5583 5581 5581
5853 5851 5848 5846 5843 5840 5837 5833 5829 5825 5821 5815 5809 5803 5798 5791 5784 5776 5768 5760 5751 5742 5733 5724 5715 5706 5697 5689 5681 5673 5663 5654 5643 5633 5622 5610 5598 5587 5577 5569 5563 5559 5558 5558
5851 5848 5846 5843 5841 5837 5833 5829 5825 5821 5817 5810 5804 5798 5792 5785 5778 5770 5762 5753 5744 5734 5725 5715 5706 5696 5688 5679 5671 5662 5651 5641 5630 5618 5606 5593 5580 5568 5557 5548 5542 5538 5536 5536
5848 5846 5843 5842 5837 5834 5830 5826 5821 5816 5811 5806 5800 5793 5787 5779 5772 5764 5756 5746 5737 5727 5717 5707 5697 5688 5678 5669 5660 5651 5640 5628 5616 5604 5591 5577 5564 5551 5540 5531 5524 5520 5517 5516
5845 5842 5840 5837 5834 5830 5826 5823 5818 5813 5807 5801 5795 5788 5781 5774 5765 5757 5748 5738 5728 5718 5709 5699 5689 5679 5669 5660 5650 5640 5629 5617 5604 5591 5577 5563 5550 5537 5526 5517 5510 5504 5501 5501
5841 5838 5836 5834 5830 5825 5823 5818 5814 5808 5802 5796 5790 5784 5776 5767 5759 5750 5741 5732 5722 5711 5701 5691 5681 5671 5661 5652 5642 5631 5619 5607 5593 5579 5566 5552 5539 5527 5516 5506 5499 5494 5491 5490
5837 5834 5832 5829 5825 5822 5818 5814 5808 5802 5797 5790 5783 5777 5770 5762 5754 5745 5735 5726 5715 5704 5694 5684 5674 5664 5654 5644 5633 5622 5610 5597 5584 5570 5557 5543 5530 5518 5508 5499 5492 5486 5484 5483
5834 5831 5829 5824 5820 5817 5814 5808 5802 5797 5791 5785 5778 5771 5764 5756 5747 5738 5729 5719 5709 5698 5687 5677 5667 5657 5647 5637 5626 5615 5603 5590 5577 5563 5550 5537 5525 5513 5503 5494 5488 5483 5480 5479
5830 5828 5823 5819 5816 5812 5808 5803 5798 5792 5786 5780 5773 5766 5758 5750 5741 5732 5722 5713 5702 5692 5681 5670 5660 5650 5640 5631 5620 5609 5597 5584 5571 5558 5545 5533 5521 5510 5501 5492 5486 5482 5479 5478
5824 5821 5818 5814 5811 5807 5802 5797 5792 5787 5781 5775 5768 5760 5752 5743 5735 5725 5716 5706 5696 5686 5675 5665 5654 5644 5635 5625 5615 5604 5592 5580 5568 5555 5543 5531 5520 5510 5501 5493 5487 5483 5480 5480
5819 5816 5813 5809 5806 5801 5797 5792 5787 5781 5775 5769 5762 5754 5746 5737 5728 5719 5710 5700 5690 5680 5670 5660 5649 5639 5630 5620 5610 5600 5589 5577 5565 5553 5542 5530 5520 5511 5503 5495 5489 5485 5483 5482
5813 5810 5808 5804 5800 5796 5791 5786 5781 5776 5769 5763 5755 5748 5739 5731 5722 5713 5703 5694 5684 5674 5664 5655 5645 5635 5626 5616 5607 5597 5587 5575 5564 5553 5542 5531 5521 5513 5505 5499 5493 5489 5486 5485
5807 5804 5801 5798 5794 5790 5785 5780 5775 5769 5763 5756 5749 5741 5733 5725 5716 5707 5698 5688 5679 5670 5660 5650 5641 5631 5622 5613 5604 5595 5585 5574 5563 5553 5542 5532 5523 5515 5508 5502 5497 5492 5490 5488
5800 5798 5795 5791 5787 5783 5779 5774 5768 5763 5756 5750 5743 5735 5727 5719 5710 5702 5693 5683 5674 5665 5656 5646 5637 5628 5619 5610 5602 5593 5583 5574 5563 5553 5543 5534 5525 5517 5510 5505 5500 5496 5493 5492
5793 5790 5787 5784 5780 5776 5772 5766 5761 5755 5749 5743 5736 5729 5721 5714 5705 5697 5688 5679 5670 5661 5652 5643 5634 5625 5616 5608 5600 5591 5583 5573 5564 5554 5545 5536 5528 5520 5514 5508 5503 5499 5496 5495
5786 5783 5779 5776 5773 5769 5764 5759 5754 5748 5742 5736 5730 5723 5716 5708 5700 5692 5683 5675 5666 5658 5649 5640 5631 5623 5614 5606 5598 5590 5582 5574 5565 5556 5547 5538 5530 5523 5517 5511 5507 5503 5500 5498
5778 5775 5772 5768 5764 5760 5756 5751 5746 5741 5735 5729 5723 5717 5710 5703 5696 5688 5679 5670 5662 5654 5645 5637 5628 5620 5612 5604 5597 5590 5582 5574 5566 5557 5549 5541 5533 5526 5520 5515 5510 5506 5504 5502
5769 5766 5763 5759 5756 5752 5747 5743 5738 5733 5728 5722 5716 5711 5705 5698 5691 5684 5675 5667 5658 5650 5642 5634 5625 5617 5610 5602 5596 5589 5582 5575 5567 5559 5551 5544 5536 5530 5524 5518 5514 5510 5507 5505
5759 5757 5753 5750 5746 5742 5738 5734 5730 5725 5720 5715 5709 5704 5698 5692 5686 5679 5671 5663 5655 5647 5638 5630 5623 5615 5608 5601 5595 5588 5582 5576 5568 5561 5553 5547 5540 5533 5527 5522 5517 5514 5511 5509
5749 5746 5743 5740 5736 5733 5729 5726 5721 5717 5712 5707 5702 5697 5692 5686 5680 5673 5666 5659 5651 5644 5636 5628 5620 5613 5606 5600 5594 5588 5583 5577 5570 5563 5556 5550 5543 5537 5531 5526 5521 5518 5515 5513
5737 5735 5732 5729 5726 5722 5719 5716 5712 5708 5703 5699 5694 5689 5684 5679 5674 5668 5661 5654 5647 5640 5633 5625 5618 5611 5605 5599 5593 5588 5583 5577 5572 5566 5559 5553 5547 5541 5535 5531 5526 5523 5520 5518
5723 5721 5719 5716 5713 5711 5708 5705 5702 5698 5694 5690 5686 5681 5677 5672 5667 5662 5656 5650 5643 5636 5629 5623 5616 5610 5603 5597 5592 5587 5583 5578 5573 5568 5562 5557 5551 5546 5541 5536 5532 5529 5526 5524
5709 5707 5705 5703 5700 5698 5697 5694 5691 5688 5684 5681 5677 5673 5669 5665 5660 5656 5650 5645 5639 5632 5626 5620 5614 5607 5602 5596 5591 5586 5582 5578 5574 5570 5565 5560 5556 5551 5546 5542 5538 5535 5532 5530
5693 5692 5690 5689 5687 5686 5685 5683 5679 5677 5674 5671 5668 5664 5660 5657 5653 5649 5644 5639 5634 5628 5622 5616 5611 5605 5599 5594 5589 5585 5581 5578 5575 5572 5568 5564 5560 5555 5551 5547 5544 5541 5539 5536
5675 5675 5674 5673 5673 5672 5671 5669 5667 5665 5662 5660 5658 5655 5651 5648 5645 5641 5637 5633 5628 5623 5618 5613 5607 5602 5597 5592 5587 5583 5580 5577 5575 5572 5569 5566 5563 5560 5556 5553 5550 5548 5545 5544
5657 5657 5657 5657 5657 5657 5656 5655 5654 5653 5651 5649 5647 5644 5642 5639 5636 5633 5630 5627 5623 5618 5613 5608 5603 5598 5593 5589 5584 5581 5578 5576 5574 5572 5570 5568 5565 5563 5560 5558 5555 5553 5551 5550
5637 5637 5638 5639 5639 5639 5639 5640 5640 5639 5638 5637 5635 5634 5632 5629 5627 5625 5622 5619 5616 5612 5608 5604 5599 5594 5590 5585 5582 5578 5576 5574 5572 5571 5570 5568 5567 5565 5563 5562 5560 5558 5557 5556